User: anonymous   Login
Location: ??????
(30.5519°N, 47.7720°E)
Time: 16:12:18
(UTC+00:00)
Language:

Cosmos 1346 Rocket - Orbit

View from above orbital plane
View from above orbital plane
View from above satellite
View from above satellite

Ground track
Ground track

The orbit data is extracted from the following two-line orbital elements,

1 13121U 82027B   21109.90729652  .00000317  00000-0  18421-4 0  9991
2 13121  81.1718 306.8450 0015597 100.5835 259.7148 15.09153571128207
Epoch (UTC): 19 April 2021 21:46:30
Eccentricity: 0.0015597
inclination: 81.1718°
perigee height: 528 km
apogee height: 549 km
right ascension of ascending node: 306.8450°
argument of perigee: 100.5835°
revolutions per day: 15.09153571
mean anomaly at epoch: 259.7148°
orbit number at epoch: 12820

The dashed part of the orbit path shows where the satellite is in the earth's shadow,  

DLR